GSAT-31

Last updated on Sun Nov 16 2025 00:03:44 GMT+0000 (Coordinated Universal Time)

1 44035U 19007B 25319.46162858 .00000132 00000+0 00000+0 0 9997 2 44035 0.0305 131.5147 0005777 116.7637 20.5952 1.00270938 24824
UTC large
Height (km)
Speed (km/s)
/
Latitude / Longitude
Inclination (degrees)
Orbital Period (minutes)
Azimuth
Elevation
Range (km)
Doppler Factor

Next 0 passes for location: London (51.5072 / 0.1276)

Sorry there are no passes over London.